Вернуться в каталог

BREEZE-M DEB

TANK

АктивенHEO
NORAD 45988·DEBRIS·🇷🇺 Russia

Запущен Jul 30, 2020 с Baikonur Cosmodrome

Loading…

Ближайшие Пролёты (ближайшие 24 часа)

TLE

СвежийSource: Space-Track

Эпоха: Sep 14, 2026, 05:48 UTC

1 45988U 20053D   26257.24213266  .00000557  00000-0  48880-3 0  9990
2 45988  49.6483 325.7995 6221841 339.6346   3.8913  3.64494834 80016

Отслеживайте BREEZE-M DEB в реальном времени с AllMySat

Download on the App Store